When you browse on this site, cookies collect data to enhance your experience and personalize the content and advertising you see.
Visit our Privacy Policy to learn more. By continuing to use the site, you agree to this use of cookies and data.
  • In Österreich
  • Länderverzeichnis
  • Für 7 Tage
  • Wassertemperatur
  • Satellitenkarten
  • Wetterkarte
  • News
  • Widgets
  • user-avatar
    Anmelden

    Stündliche Wetter Rondônia

    Heute, 17 Juli, Mittwoch

    Zeit Temperatur Niederschläge Wind Luftdruck Luftfeuchtigkeit
    00:00 +25°C° 0 mm 1 m/S 740 mmHg 78%
    01:00 +22°C° 0 mm 0 m/S 740 mmHg 82%
    02:00 +21°C° 0 mm 0 m/S 740 mmHg 87%
    03:00 +20°C° 0 mm 0 m/S 740 mmHg 89%
    04:00 +20°C° 0 mm 0 m/S 740 mmHg 91%
    05:00 +19°C° 0 mm 0 m/S 740 mmHg 93%
    06:00 +20°C° 0 mm 0 m/S 740 mmHg 88%
    07:00 +21°C° 0 mm 0 m/S 741 mmHg 83%
    08:00 +25°C° 0 mm 1 m/S 741 mmHg 78%
    09:00 +27°C° 0 mm 1 m/S 741 mmHg 67%
    10:00 +30°C° 0 mm 1 m/S 741 mmHg 56%
    11:00 +33°C° 0 mm 1 m/S 742 mmHg 45%
    12:00 +34°C° 0 mm 1 m/S 741 mmHg 39%
    13:00 +36°C° 0 mm 1 m/S 740 mmHg 34%
    14:00 +37°C° 0 mm 1 m/S 740 mmHg 29%
    15:00 +36°C° 0 mm 1 m/S 739 mmHg 31%
    16:00 +35°C° 0 mm 1 m/S 739 mmHg 34%
    17:00 +33°C° 0 mm 0 m/S 738 mmHg 37%
    18:00 +30°C° 0 mm 0 m/S 738 mmHg 42%
    19:00 +28°C° 0 mm 0 m/S 738 mmHg 47%
    20:00 +26°C° 0 mm 0 m/S 738 mmHg 51%
    21:00 +25°C° 0 mm 0 m/S 739 mmHg 52%
    22:00 +25°C° 0 mm 0 m/S 739 mmHg 52%
    23:00 +25°C° 0 mm 0 m/S 740 mmHg 53%

    Morgen, 18 Juli, Donnerstag

    Zeit Temperatur Niederschläge Wind Luftdruck Luftfeuchtigkeit
    00:00 +25°C° 0 mm 0 m/S 740 mmHg 55%
    01:00 +24°C° 0 mm 0 m/S 739 mmHg 58%
    02:00 +24°C° 0 mm 0 m/S 739 mmHg 60%
    03:00 +23°C° 0 mm 0 m/S 739 mmHg 64%
    04:00 +22°C° 0 mm 0 m/S 739 mmHg 69%
    05:00 +21°C° 0 mm 0 m/S 739 mmHg 73%
    06:00 +22°C° 0 mm 0 m/S 740 mmHg 71%
    07:00 +23°C° 0 mm 0 m/S 740 mmHg 69%
    08:00 +24°C° 0 mm 0 m/S 741 mmHg 67%
    09:00 +27°C° 0 mm 0 m/S 741 mmHg 57%
    10:00 +30°C° 0 mm 0 m/S 741 mmHg 46%
    11:00 +36°C° 0 mm 1 m/S 741 mmHg 35%
    12:00 +37°C° 0 mm 1 m/S 741 mmHg 32%
    13:00 +36°C° 0 mm 0 m/S 740 mmHg 28%
    14:00 +37°C° 0 mm 0 m/S 739 mmHg 24%
    15:00 +35°C° 0 mm 0 m/S 739 mmHg 28%
    16:00 +34°C° 0 mm 0 m/S 738 mmHg 32%
    17:00 +32°C° 0 mm 0 m/S 737 mmHg 36%
    18:00 +30°C° 0 mm 0 m/S 738 mmHg 41%
    19:00 +28°C° 0 mm 0 m/S 738 mmHg 46%
    20:00 +25°C° 0 mm 0 m/S 738 mmHg 51%
    21:00 +25°C° 0 mm 0 m/S 738 mmHg 53%
    22:00 +24°C° 0 mm 0 m/S 739 mmHg 55%
    23:00 +23°C° 0 mm 0 m/S 739 mmHg 57%

    übermorgen, 19 Juli, Freitag

    Zeit Temperatur Niederschläge Wind Luftdruck Luftfeuchtigkeit
    00:00 +23°C° 0 mm 0 m/S 739 mmHg 59%
    01:00 +22°C° 0 mm 0 m/S 739 mmHg 61%
    02:00 +22°C° 0 mm 0 m/S 739 mmHg 62%
    03:00 +22°C° 0 mm 0 m/S 739 mmHg 64%
    04:00 +21°C° 0 mm 0 m/S 739 mmHg 66%
    05:00 +21°C° 0 mm 0 m/S 739 mmHg 69%
    06:00 +22°C° 0 mm 0 m/S 739 mmHg 67%
    07:00 +22°C° 0 mm 0 m/S 740 mmHg 65%
    08:00 +23°C° 0 mm 0 m/S 740 mmHg 63%
    09:00 +27°C° 0 mm 0 m/S 741 mmHg 52%
    10:00 +31°C° 0 mm 0 m/S 741 mmHg 42%
    11:00 +36°C° 0 mm 1 m/S 741 mmHg 32%
    12:00 +37°C° 0 mm 1 m/S 740 mmHg 28%
    13:00 +39°C° 0 mm 1 m/S 739 mmHg 25%
    14:00 +40°C° 0 mm 1 m/S 739 mmHg 22%
    15:00 +37°C° 0 mm 1 m/S 738 mmHg 24%
    16:00 +36°C° 0 mm 1 m/S 737 mmHg 27%
    17:00 +35°C° 0 mm 1 m/S 737 mmHg 30%
    18:00 +30°C° 0 mm 0 m/S 737 mmHg 35%
    19:00 +27°C° 0 mm 0 m/S 737 mmHg 40%
    20:00 +25°C° 0 mm 0 m/S 738 mmHg 46%
    21:00 +24°C° 0 mm 0 m/S 738 mmHg 47%
    22:00 +23°C° 0 mm 0 m/S 738 mmHg 48%
    23:00 +23°C° 0 mm 0 m/S 738 mmHg 50%

    20 Juli, Samstag

    Zeit Temperatur Niederschläge Wind Luftdruck Luftfeuchtigkeit
    00:00 +22°C° 0 mm 0 m/S 738 mmHg 51%
    01:00 +22°C° 0 mm 0 m/S 738 mmHg 52%
    02:00 +22°C° 0 mm 0 m/S 738 mmHg 52%
    03:00 +21°C° 0 mm 0 m/S 738 mmHg 54%
    04:00 +21°C° 0 mm 0 m/S 738 mmHg 55%
    05:00 +21°C° 0 mm 0 m/S 738 mmHg 57%
    06:00 +22°C° 0 mm 0 m/S 738 mmHg 55%
    07:00 +23°C° 0 mm 0 m/S 738 mmHg 54%
    08:00 +24°C° 0 mm 0 m/S 739 mmHg 52%
    09:00 +29°C° 0 mm 1 m/S 739 mmHg 44%
    10:00 +32°C° 0 mm 1 m/S 739 mmHg 35%
    11:00 +36°C° 0 mm 1 m/S 740 mmHg 27%
    12:00 +37°C° 0 mm 1 m/S 739 mmHg 25%
    13:00 +39°C° 0 mm 1 m/S 738 mmHg 23%
    14:00 +40°C° 0 mm 1 m/S 737 mmHg 21%
    15:00 +39°C° 0 mm 1 m/S 737 mmHg 24%
    16:00 +37°C° 0 mm 1 m/S 736 mmHg 27%
    17:00 +36°C° 0 mm 1 m/S 735 mmHg 31%
    18:00 +33°C° 0 mm 1 m/S 736 mmHg 37%
    19:00 +28°C° 0 mm 0 m/S 736 mmHg 43%
    20:00 +25°C° 0 mm 0 m/S 736 mmHg 49%
    21:00 +25°C° 0 mm 0 m/S 736 mmHg 51%
    22:00 +24°C° 0 mm 0 m/S 737 mmHg 54%
    23:00 +24°C° 0 mm 0 m/S 737 mmHg 56%

    21 Juli, Sonntag

    Zeit Temperatur Niederschläge Wind Luftdruck Luftfeuchtigkeit
    00:00 +23°C° 0 mm 0 m/S 737 mmHg 58%
    01:00 +25°C° 0 mm 1 m/S 737 mmHg 59%
    02:00 +25°C° 0 mm 1 m/S 737 mmHg 60%
    03:00 +25°C° 0 mm 1 m/S 737 mmHg 62%
    04:00 +25°C° 0 mm 1 m/S 737 mmHg 63%
    05:00 +22°C° 0 mm 0 m/S 737 mmHg 64%
    06:00 +23°C° 0 mm 0 m/S 737 mmHg 63%
    07:00 +24°C° 0 mm 0 m/S 738 mmHg 62%
    08:00 +25°C° 0 mm 0 m/S 738 mmHg 61%
    09:00 +30°C° 0 mm 1 m/S 739 mmHg 53%
    10:00 +32°C° 0 mm 1 m/S 739 mmHg 45%
    11:00 +36°C° 0 mm 2 m/S 739 mmHg 37%
    12:00 +36°C° 0 mm 2 m/S 738 mmHg 37%
    13:00 +35°C° 0 mm 1 m/S 737 mmHg 37%
    14:00 +35°C° 0 mm 1 m/S 737 mmHg 37%
    15:00 +34°C° 0 mm 1 m/S 736 mmHg 41%
    16:00 +33°C° 0 mm 1 m/S 736 mmHg 45%
    17:00 +30°C° 0 mm 0 m/S 735 mmHg 49%
    18:00 +29°C° 0 mm 0 m/S 736 mmHg 51%
    19:00 +28°C° 0 mm 0 m/S 736 mmHg 54%
    20:00 +27°C° 0 mm 0 m/S 736 mmHg 57%
    21:00 +26°C° 0 mm 0 m/S 737 mmHg 59%
    22:00 +25°C° 0 mm 0 m/S 737 mmHg 62%
    23:00 +24°C° 0 mm 0 m/S 737 mmHg 65%

    22 Juli, Montag

    Zeit Temperatur Niederschläge Wind Luftdruck Luftfeuchtigkeit
    00:00 +24°C° 0 mm 0 m/S 737 mmHg 65%
    01:00 +24°C° 0 mm 0 m/S 737 mmHg 66%
    02:00 +26°C° 0 mm 1 m/S 737 mmHg 66%
    03:00 +24°C° 0 mm 0 m/S 737 mmHg 66%
    04:00 +23°C° 0 mm 0 m/S 737 mmHg 66%
    05:00 +23°C° 0 mm 0 m/S 737 mmHg 67%
    06:00 +24°C° 0 mm 0 m/S 737 mmHg 65%
    07:00 +25°C° 0 mm 0 m/S 738 mmHg 64%
    08:00 +25°C° 0 mm 0 m/S 739 mmHg 62%
    09:00 +30°C° 0 mm 1 m/S 739 mmHg 53%
    10:00 +34°C° 0 mm 2 m/S 739 mmHg 44%
    11:00 +37°C° 0 mm 2 m/S 740 mmHg 35%
    12:00 +37°C° 0 mm 2 m/S 739 mmHg 34%
    13:00 +37°C° 0 mm 2 m/S 738 mmHg 34%
    14:00 +37°C° 0 mm 2 m/S 737 mmHg 33%
    15:00 +36°C° 0 mm 1 m/S 737 mmHg 35%
    16:00 +35°C° 0 mm 1 m/S 736 mmHg 38%
    17:00 +35°C° 0 mm 1 m/S 736 mmHg 40%
    18:00 +32°C° 0 mm 1 m/S 736 mmHg 45%
    19:00 +28°C° 0 mm 0 m/S 737 mmHg 50%
    20:00 +26°C° 0 mm 0 m/S 737 mmHg 55%
    21:00 +25°C° 0 mm 0 m/S 737 mmHg 57%
    22:00 +25°C° 0 mm 0 m/S 737 mmHg 60%
    23:00 +24°C° 0 mm 0 m/S 738 mmHg 62%
    Mehr zeigen